Location: Plymouth
(43.7490°N, 87.9770°W)
Time: 03:10:52
(UTC-05:00)

Daily predictions for brighter satellites

Satellite Brightness Start Highest point End
(mag) Time Altitude Azimuth Time Altitude Azimuth Time Altitude Azimuth
Meteor 1-23 Rocket 4.1 00:02:24 10° N 00:07:59 72° ENE 00:08:33 66° ESE
Cosmos 1544 Rocket 4.3 00:09:41 45° NE 00:09:41 45° NE 00:13:04 10° NNE
Lacrosse 5 3.0 00:14:34 32° E 00:14:34 32° E 00:17:34 10° ENE
ATLAS 2AS CENTAUR R/B 4.2 00:09:34 10° NNW 00:17:07 39° NE 00:24:02 11° ESE
Meteor 2-15 Rocket 4.3 00:19:43 10° N 00:25:54 88° W 00:26:46 68° S
Cosmos 2369 Rocket 2.3 00:28:04 60° ESE 00:28:04 60° ESE 00:33:31 10° NNE
NOSS 3-1 (C) 3.9 00:20:24 10° NW 00:27:59 84° SW 00:30:26 50° SSE
CZ-4C R/B 4.4 00:29:13 40° NW 00:29:13 40° NW 00:31:48 10° NNW
Meteor 2-14 Rocket 4.5 00:30:52 58° SW 00:32:00 71° W 00:38:09 10° N
USA 234 4.3 00:27:08 10° NE 00:33:17 45° NNW 00:39:24 10° W
Okean 2 4.0 00:29:15 10° N 00:32:34 56° NNW 00:32:34 56° NNW
Meteor 2-15 4.5 00:28:25 10° NNW 00:34:29 65° W 00:35:20 58° SW
Cosmos 1302 Rocket 4.4 00:35:12 50° W 00:35:59 56° WNW 00:41:13 10° NNE
SL-8 R/B 4.5 00:32:27 10° WNW 00:37:08 50° N 00:41:13 13° E
Cosmos 2285 Rocket 3.9 00:41:21 63° SSW 00:42:27 86° WNW 00:48:54 10° NNE
Cosmos 1605 Rocket 4.0 00:42:08 61° SSW 00:43:17 78° W 00:49:44 10° N
Landsat 5 4.0 00:44:55 59° NW 00:44:55 59° NW 00:48:30 10° NNW
Cosmos 1459 Rocket 4.4 00:43:50 43° ESE 00:44:34 45° E 00:50:19 10° NNE
Cosmos 1892 Rocket 4.4 00:42:13 10° NNW 00:45:43 44° WNW 00:45:43 44° WNW
Meteor 1-5 Rocket 3.9 00:46:34 83° SW 00:46:46 87° W 00:52:08 10° N
CZ-2C R/B 2.8 00:43:07 10° NNE 00:48:08 56° E 00:48:08 56° E
Meteor 1-12 Rocket 4.4 00:48:04 57° ESE 00:48:17 57° E 00:53:49 10° NNE
Helios 1A Rocket 3.7 00:45:17 10° NNE 00:48:26 48° NE 00:48:26 48° NE
Cosmos 1315 Rocket 3.9 00:50:36 40° NW 00:50:36 40° NW 00:53:32 10° N
CZ-2C R/B 3.4 00:54:50 51° E 00:55:12 52° ENE 00:59:59 10° N
Lacrosse 5 rocket 2.8 00:57:54 29° NE 00:57:54 29° NE 00:59:53 10° NE
H-2A R/B 3.2 00:51:49 10° N 00:56:04 53° WNW 00:56:04 53° WNW
Cosmos 1153 Rocket 4.4 00:55:41 66° SSW 00:56:41 87° W 01:03:04 10° N
Cosmos 2123 Rocket 4.5 00:51:19 10° NNW 00:57:17 47° W 00:58:12 44° WSW
Cosmos 2173 Rocket 4.1 01:00:47 55° SE 01:01:41 61° E 01:07:55 10° NNE
ALOS 2 4.1 01:05:51 28° WNW 01:05:51 28° WNW 01:08:53 10° NNW
Cosmos 1602 Rocket 3.9 01:03:17 10° N 01:07:02 62° NNW 01:07:02 62° NNW
CZ-4B R/B 4.1 01:12:24 13° NW 01:12:24 13° NW 01:12:58 10° NW
Cosmos 1626 Rocket 4.0 01:09:24 10° NNW 01:13:08 58° NW 01:13:08 58° NW
Cosmos 1943 Rocket 2.2 01:15:17 61° ESE 01:15:17 61° ESE 01:20:48 10° NNE
Cosmos 1455 Rocket 4.1 01:17:50 37° WNW 01:17:50 37° WNW 01:21:29 10° N
Cosmos 1346 Rocket 4.1 01:16:56 10° NNW 01:19:26 35° NW 01:19:26 35° NW
Cosmos 2263 4.3 01:27:20 59° WSW 01:28:05 65° WNW 01:33:43 10° NNE
ISS -0.6 01:29:43 16° NW 01:31:01 20° N 01:33:32 10° NE
SeaSat 1 2.8 01:30:22 53° E 01:31:08 61° ENE 01:36:01 10° NNW
Cosmos 1975 3.9 01:38:08 40° NW 01:38:08 40° NW 01:41:14 10° N
Cosmos 1818 3.4 01:40:50 77° SW 01:41:15 86° NW 01:46:46 10° NNE
Cosmos 968 Rocket 3.3 01:38:06 10° NNW 01:43:23 89° WSW 01:43:34 84° S
Cosmos 1833 4.1 01:42:33 10° NNW 01:48:07 64° WSW 01:48:11 64° WSW
NOSS 3-3 (A) 4.5 01:47:44 42° SE 01:48:29 44° ESE 01:54:44 10° NE
Cosmos 2228 4.5 01:49:18 28° E 01:49:25 28° E 01:53:05 10° NNE
GP-B 4.3 01:45:34 10° NNW 01:49:09 33° WNW 01:49:09 33° WNW
Cosmos 1606 Rocket 3.7 01:53:17 65° NE 01:53:17 65° NE 01:57:12 10° NNE
SL-08 R/B 4.5 01:52:18 59° S 01:53:39 89° W 02:00:06 10° N
Lacrosse 5 2.9 01:53:43 28° W 01:55:45 41° NNW 02:00:35 10° NE
Cosmos 1743 3.4 02:06:25 50° NNW 02:06:25 50° NNW 02:09:28 10° N
Cosmos 2058 Rocket 3.2 02:07:03 64° E 02:07:03 64° E 02:11:25 10° NNE
Cosmos 2208 Rocket 4.5 02:07:38 45° SE 02:08:17 47° ESE 02:13:18 10° NNE
ATLAS 2AS CENTAUR R/B 3.0 02:00:41 10° NW 02:08:43 67° WSW 02:11:23 43° S
Cosmos 2369 Rocket 3.9 02:09:50 18° W 02:12:24 24° NW 02:16:54 10° N
Cosmos 1842 3.5 02:09:37 10° N 02:13:16 66° NE 02:13:16 66° NE
Cosmos 1777 Rocket 3.8 02:10:54 10° NNW 02:16:06 78° WSW 02:16:38 70° SSW
Meteor 2-9 Rocket 4.5 02:15:12 48° SSE 02:16:41 66° E 02:22:29 10° NNE
Cosmos 2219 3.1 02:11:28 10° NNW 02:17:07 72° WSW 02:17:55 62° SSW
Cosmos 1953 Rocket 3.8 02:13:45 10° NNW 02:17:33 56° WNW 02:17:33 56° WNW
SL-8 R/B 3.9 02:15:08 10° WNW 02:26:51 - ESE 02:18:55 55° W
Cosmos 1340 3.0 02:18:29 10° N 02:21:46 64° N 02:21:46 64° N
Cosmos 2227 Rocket 3.4 02:18:51 10° NNW 02:24:10 39° ENE 02:29:28 10° SE
Cosmos 2233 Rocket 3.9 02:23:43 49° S 02:25:32 81° E 02:31:41 10° N
JB-3 4.3 02:21:33 10° N 02:25:30 82° NNW 02:25:30 82° NNW
Cosmos 44 Rocket 3.5 02:22:24 10° NW 02:27:07 56° WSW 02:27:07 56° WSW
CZ-2C R/B 4.3 02:24:20 10° NNW 02:28:09 21° WNW 02:29:39 19° W
Cosmos 1726 Rocket 3.8 02:30:19 53° WNW 02:30:19 53° WNW 02:34:29 10° N
UNK 4.0 02:21:08 10° W 02:30:14 54° NNW 02:33:18 10° ENE
AQUA 4.4 02:28:08 10° NNE 02:32:47 50° E 02:33:51 42° SE
Cosmos 972 Rocket 4.4 02:29:39 10° N 02:34:31 59° ENE 02:37:03 28° SE
Lacrosse 5 rocket 3.7 02:33:36 10° WNW 02:36:00 16° NNW 02:38:23 10° NNE
IRS-P3 4.1 02:32:01 10° NNE 02:37:25 81° ESE 02:38:49 51° S
Cosmos 1666 3.0 02:40:24 55° NW 02:40:24 55° NW 02:43:48 10° N
Cosmos 2278 4.5 02:38:18 32° SSE 02:40:11 42° ESE 02:45:29 10° NE
Abrixas 4.2 02:40:43 32° NNW 02:40:53 32° N 02:43:42 10° ENE
Cosmos 1758 Rocket 4.3 02:38:07 10° NNW 02:42:05 39° W 02:42:05 39° W
Uosat 12 SS-18 rocket 4.4 02:38:16 10° NNW 02:42:53 76° NE 02:47:24 15° SE
Cosmos 2297 Rocket 3.4 02:40:45 10° NNW 02:46:06 42° ENE 02:51:25 10° SE
Cosmos 405 Rocket 4.1 02:44:50 10° N 02:48:40 38° ENE 02:50:35 24° SE
GEOS 3 Rocket 4.2 02:48:16 10° ESE 02:53:20 56° NE 02:58:25 10° NNW
Cosmos 1656 Rocket 4.3 02:54:09 33° WSW 02:56:06 45° WNW 03:01:32 10° NNE
SL-08 R/B 3.2 02:57:30 52° SSW 02:58:29 67° W 03:03:09 10° NNW
Landsat 4 4.3 02:59:05 43° WNW 02:59:05 43° WNW 03:02:22 10° NNW
Cosmos 1943 Rocket 3.8 02:56:48 17° W 02:59:28 23° NW 03:03:55 10° N
NPP 3.6 02:55:23 10° N 03:00:47 76° WNW 03:02:39 42° SSW
IRAS Rocket 4.2 02:55:31 10° NNE 03:01:11 85° ESE 03:03:28 38° SSW
NOSS 2-1 (D) 4.4 03:05:09 31° SE 03:05:58 34° ESE 03:09:55 10° NE
NOSS 2-1 (C) 4.4 03:06:27 31° SE 03:07:19 35° ESE 03:11:16 10° NE
ISS -1.1 03:05:19 10° NW 03:08:10 27° NNE 03:11:01 10° ENE
Resurs 1-4 Rocket 3.3 03:03:52 10° NNE 03:08:43 36° E 03:12:18 16° SSE
SeaSat 1 4.1 03:10:10 18° W 03:10:10 18° W 03:12:30 10° WNW
ATLAS CENTAUR R/B 3.1 03:09:11 23° SSE 03:11:17 31° ESE 03:15:42 10° NE
Cosmos 1898 Rocket 3.7 03:08:28 10° NNW 03:13:50 76° ENE 03:18:52 12° SSE
SL-16 R/B 2.9 03:08:07 10° SSE 03:14:12 63° ENE 03:20:17 10° N
Cosmos 44 3.6 03:10:58 10° NW 03:15:56 47° WSW 03:17:03 40° SSW
USA 161 1.7 03:15:50 63° ESE 03:16:02 66° ENE 03:18:54 10° N
Okean O Rocket 4.2 03:15:27 10° ENE 03:17:54 15° E 03:20:21 10° SE
Cosmos 2034 Rocket 4.1 03:14:41 24° S 03:18:38 73° E 03:24:49 10° NNE
CBERS 1 LM4 rocket 4.3 03:14:42 10° NNE 03:19:29 79° WNW 03:21:24 37° SSW
Cosmos 972 4.4 03:14:57 10° NNW 03:19:52 78° ENE 03:24:12 14° SSE
ADEOS 3.5 03:15:51 10° NNE 03:21:06 86° WNW 03:23:34 33° SSW
NOSS 2-1 (E) 4.0 03:21:03 34° SSE 03:22:18 46° ESE 03:26:36 10° NE
ERS-2 2.2 03:21:29 10° N 03:25:11 66° WNW 03:26:02 48° SW
Cosmos 2228 4.3 03:26:11 24° W 03:26:57 26° WNW 03:30:34 10° NNW
Geosat 4.4 03:23:42 10° NNE 03:28:36 54° WNW 03:30:56 29° WSW
Cosmos 1707 2.6 03:24:58 10° N 03:28:54 84° W 03:30:34 34° S
Milstar 3 Cent rocket 3.9 03:28:17 16° S 03:29:05 17° SSE 03:33:26 10° ESE
Cosmos 220 Rocket 3.8 03:24:43 10° NNW 03:29:05 79° WSW 03:31:42 23° SSE
Cosmos 1937 Rocket 3.6 03:24:50 10° NNW 03:30:01 75° ENE 03:35:13 10° SSE
NOSS 3-4 (A) 4.0 03:24:30 10° NW 03:31:28 73° NE 03:38:50 10° SE
NOSS 3-4 (C) 4.0 03:24:36 10° NW 03:31:35 73° NE 03:39:00 10° SE
BREEZE-M DEB (TANK) 3.0 03:29:58 26° WSW 03:33:03 83° SSE 03:35:49 10° ENE
Nadezhda 4 Rocket 4.2 03:27:17 10° N 03:33:28 71° E 03:39:40 10° SSE
ARIANE 5 R/B 2.5 03:32:00 10° NNE 03:37:09 84° ESE 03:40:22 24° SSW
Cosmos 1763 Rocket 4.4 03:35:23 16° S 03:39:18 44° ESE 03:44:14 10° NNE
SME Rocket 4.1 03:34:57 15° S 03:39:32 78° WSW 03:47:46 10° NNW
Lacrosse 5 4.3 03:36:16 10° NW 03:39:56 19° N 03:43:35 10° NE
GPS 2-04 Rocket1 4.3 03:40:11 19° SSE 03:40:11 19° SSE 03:42:44 10° ESE
UNK 3.7 03:36:37 14° SSE 03:40:37 88° ENE 03:45:21 10° NNW
BREEZE-M DEB (TANK) 3.3 03:38:25 10° WNW 03:45:05 31° SW 03:45:42 30° SW
Cosmos 1656 3.9 03:42:42 21° S 03:46:30 70° ESE 03:52:09 10° NNE
Cosmos 1408 Rocket 4.1 03:43:00 10° N 03:47:20 60° E 03:51:41 10° SSE
Cosmos 1766 Rocket 4.2 03:43:39 10° N 03:47:59 56° E 03:52:20 10° SSE
Spot 4 Rocket 4.3 03:43:01 10° N 03:48:05 56° WNW 03:51:01 24° SW
Meteor 2-5 Rocket 4.1 03:43:35 10° NNW 03:49:12 50° W 03:53:09 20° SSW
Cosmos 1812 Rocket 4.5 03:47:34 26° WSW 03:49:13 34° WNW 03:53:18 10° N
Cosmos-2242 4.2 03:49:46 10° SSE 03:53:48 39° E 03:57:50 10° NNE
Cosmos 2082 4.0 03:50:12 10° NW 03:55:31 44° WSW 04:00:19 12° S
ATLAS 2AS CENTAUR R/B 4.5 03:54:46 10° WNW 03:58:11 13° W 03:58:44 13° WSW
CZ-2D R/B 2.2 03:53:34 10° NNE 03:59:05 84° WNW 04:03:24 17° SSW
IRS-1D 3.5 03:54:15 10° N 03:59:10 67° WNW 04:02:36 20° SSW
Cosmos 1697 Rocket 3.0 03:55:03 17° S 03:59:29 67° ESE 04:05:08 10° NNE
BREEZE-M DEB 4.1 04:03:04 38° SW 04:03:07 38° SSW 04:05:56 10° SE
Cosmos 1980 Rocket 3.0 04:01:17 10° S 04:06:36 46° ESE 04:12:00 10° NE
Cosmos 1634 Rocket 4.3 04:01:39 10° S 04:07:48 68° E 04:14:04 10° NNE
Cosmos 2227 Rocket 2.9 04:03:06 10° NW 04:08:07 33° WSW 04:12:25 13° SSW
Cosmos 1814 Rocket 4.3 04:06:19 20° SW 04:10:00 58° WNW 04:15:18 10° NNE
Okean 3 Rocket 4.5 04:11:08 10° NNW 04:14:59 30° W 04:17:27 18° SW
Lacrosse 5 rocket 4.2 04:15:50 10° N 04:16:34 10° N 04:17:18 10° NNE
Cosmos 2322 Rocket 4.3 04:12:30 10° SSE 04:16:44 22° E 04:20:56 10° NE
Abrixas 3.6 04:14:19 10° WNW 04:17:18 45° NNE 04:20:16 10° E
IRS-1C Rocket 4.4 04:14:38 10° NNE 04:19:54 70° ESE 04:25:08 10° S
Cosmos 1092 Rocket 4.0 04:14:15 10° NNW 04:20:30 70° W 04:26:46 10° S
ADEOS II 4.4 04:19:15 10° NE 04:23:20 22° E 04:27:23 10° SE
MOZ.5/SAFIR/RUBIN 5/SL-8 4.0 04:18:49 10° SSE 04:23:31 74° ENE 04:28:13 10° N
Cosmos 1766 3.7 04:21:31 16° SW 04:24:22 45° WNW 04:28:11 10° N
Cosmos 2297 Rocket 3.0 04:25:06 10° NW 04:29:58 31° WSW 04:34:51 10° SSW
GEOS 3 Rocket 4.5 04:27:10 10° S 04:31:35 28° WSW 04:36:00 10° WNW
UNKNOWN OBJECT B 3.3 04:30:22 10° N 04:34:08 42° WNW 04:37:27 12° SW
Cosmos 1758 3.3 04:30:10 10° SSW 04:34:12 77° W 04:38:15 10° N
CZ-2D R/B 3.7 04:33:12 10° N 04:37:27 57° WNW 04:41:44 10° SSW
Cosmos 1953 2.4 04:37:01 10° SSW 04:41:01 61° W 04:45:03 10° N
ISS -3.4 04:41:35 10° WNW 04:44:50 70° SW 04:48:04 10° SE
SL-16 R/B 3.6 04:42:31 10° S 04:47:39 37° ESE 04:52:49 10° NE
Resurs 1-4 Rocket 3.1 04:43:52 10° N 04:48:27 31° WNW 04:53:01 10° SW
ATLAS CENTAUR R/B 2.6 04:45:32 10° WSW 04:50:19 41° NW 04:55:03 10° NNE
PAYLOAD B 4.3 04:45:40 10° NNE 04:51:18 82° WNW 04:56:54 10° SSW
NOSS 7 (H) 4.4 04:51:12 10° SW 04:54:22 66° NW 04:57:48 10° NNE
Okean O Rocket 1.8 04:50:19 10° N 04:54:37 55° WNW 04:58:55 10° SSW
Cosmos 1461 3.5 04:52:29 10° NNW 04:56:38 61° NE 05:00:36 10° SE
Cosmos 1500 Rocket 3.5 04:52:47 10° NNW 04:57:12 73° W 05:01:33 10° S
SL-16 R/B 3.7 04:53:40 10° SW 04:58:16 22° W 05:02:54 10° NW
Cosmos 1805 3.8 04:56:03 10° SSW 04:59:45 40° WNW 05:03:28 10° N
USA 116 4.2 04:56:48 10° SSE 04:59:51 52° ENE 05:03:07 10° N
Cosmos 1743 Rocket 3.9 04:57:03 10° NNW 05:01:12 44° W 05:05:19 10° SSW
Cosmos 371 Rocket 4.2 04:57:07 10° S 05:01:46 50° ESE 05:06:25 10° NNE
Cosmos 1125 Rocket 3.6 04:56:53 10° NNW 05:01:59 56° WSW 05:07:02 10° S
Cosmos 372 Rocket 4.0 04:58:49 10° NNW 05:03:57 89° WSW 05:09:02 10° SSE
CZ-4B R/B 3.3 04:59:09 10° N 05:04:41 67° WNW 05:10:05 10° SSW
Cosmos 2279 Rocket 4.1 04:59:19 10° SSW 05:05:35 76° W 05:11:52 10° N
Aureole 1 Rocket 4.4 05:00:02 10° S 05:05:38 73° ESE 05:13:02 10° NNE
